Weather in Nica

Latvia     56°20′41″N   21°03′57″E
temp.,
°C
wind,
m/s
gust,
m/s
humid.,
%
clouds,
%
prec.,
mm/h
press.,
hPa
HPBL,
m
22 april, thu
thu2200:00+5sw8147812 0.0 1005435
03:00+5sw812820 0.0 1005470
06:00+5sw912835 0.1 1004623
09:00+5sw9128160 0.4 1003997
12:00+5sw10137491 0.4 10041214
15:00+4sw91188100 0.8 1005873
18:00+4w81091100 0.4 1006717
21:00+4wnw8984100 0.8 1006824
23 april, fri
fri2300:00+3wnw9118899 0.4 1007896
03:00+3nw131797100 1.6 10071035
06:00+3nw111484100 0.9 10091205
09:00+4nw10127375 1.3 10111183
12:00+4nw81069100 0.2 10131393
15:00+4nw8107481 0.6 10151097
18:00+4nw710666 0.5 10161253
21:00+4wnw6106786 0.6 10161032
24 april, sat
sat2400:00+4nw686997 0.1 1016656
03:00+5wnw9126183 0.3 10151050
06:00+4nw811705 0.1 10151132
09:00+4nw910675 0.3 10161231
12:00+4nw9106213 0.4 10161445
15:00+4nw91164100 0.6 10171454
18:00+4nw10126899 0.2 10171363
21:00+3nnw91270100 0.6 10181420
25 april, sun
sun2500:00+3nnw10136599 0.2 10171429
03:00+4nw9116462 0.3 10171281
06:00+4nw81062100 0.2 10161143
09:00+4nw91167100 0.4 10151222
12:00+4nw101168100 0.3 10161401
15:00+4nw9117597 0.6 10161158
18:00+4nw8107498 0.5 10161176
21:00+3wnw686911 0.8 1016864
26 april, mon
mon2600:00+4w91168100 0.0 10141068
03:00+2wnw81199100 1.2 1012815
06:00+2nnw71093100 3.0 1010719
09:00+4nnw9118187 3.9 10101115
12:00+4n8107383 0.3 10121301
15:00+5nnw786748 0.3 10141231
18:00+5nw677934 0.0 1015644
21:00+4nnw468754 0.0 1015382